Change the Weather History Date:

Sunday, February 10, 2013

  Actual Average Record
Temperature  
Mean Temperature 50 °F -  
Max Temperature 62 °F 72 °F 88 °F (1951)
Min Temperature 39 °F 46 °F 34 °F (1949)
Degree Days  
Heating Degree Days 14    
Moisture  
Dew Point 32 °F    
Average Humidity 51    
Maximum Humidity 73    
Minimum Humidity 29    
Precipitation  
Precipitation 0.00 in - - ()
Sea Level Pressure  
Sea Level Pressure 30.01 in    
Wind  
Wind Speed 8 mph (West)    
Max Wind Speed 13 mph    
Max Gust Speed -    
Visibility 10 miles    
Events      
Averages and records for this station are not official NWS values.
T = Trace of Precipitation, MM = Missing Value Source: NWS Daily Summary

Daily Weather History Graph

Daily Weather History Graph

Search for Another Location

Airport or City:

Trip Planner

Search our weather history database for the weather conditions in past years. The results will help you decide how hot, cold, wet, or windy it might be!

Date:

Astronomy

Feb. 10, 2013 Rise Set
Actual Time 6:29 AM PST 5:23 PM PST
Civil Twilight 6:04 AM PST 5:49 PM PST
Nautical Twilight 5:35 AM PST 6:18 PM PST
Astronomical Twilight 5:06 AM PST 6:46 PM PST
Moon 6:26 AM PST (2/10) 6:13 PM PST (2/10)
Length of Visible Light 11h 44m
Length of Day
10h 53m
New Moon, 0% of the Moon is Illuminated
Feb 10
New Moon
Feb 17
First Quarter
Feb 25
Full
Mar 4
Last Quarter
Mar 11
New

Hourly Weather History & Observations

Time (PST) Temp. Windchill Dew Point Humidity Pressure Visibility Wind Dir Wind Speed Gust Speed Precip Events Conditions
12:53 AM 46.0 °F 41.4 °F 33.1 °F 61% 30.06 in 10.0 mi West 9.2 mph - N/A   Clear
1:53 AM 44.1 °F 38.6 °F 33.1 °F 65% 30.05 in 10.0 mi WSW 10.4 mph - N/A   Clear
2:53 AM 45.0 °F 40.1 °F 32.0 °F 60% 30.04 in 10.0 mi WSW 9.2 mph - N/A   Clear
3:53 AM 41.0 °F 37.1 °F 32.0 °F 70% 30.02 in 10.0 mi West 5.8 mph - N/A   Clear
4:53 AM 43.0 °F 38.2 °F 32.0 °F 65% 30.02 in 10.0 mi WSW 8.1 mph - N/A   Clear
5:53 AM 39.0 °F 33.4 °F 30.9 °F 73% 30.03 in 10.0 mi West 8.1 mph - N/A   Clear
6:53 AM 41.0 °F 38.0 °F 28.9 °F 62% 30.04 in 10.0 mi West 4.6 mph - N/A   Clear
7:53 AM 46.9 °F - 34.0 °F 61% 30.04 in 10.0 mi WSW 4.6 mph - N/A   Clear
8:53 AM 53.1 °F - 33.1 °F 47% 30.04 in 10.0 mi WSW 9.2 mph - N/A   Clear
9:53 AM 55.9 °F - 32.0 °F 40% 30.04 in 10.0 mi West 5.8 mph - N/A   Clear
10:53 AM 59.0 °F - 30.9 °F 35% 30.04 in 10.0 mi NW 5.8 mph - N/A   Clear
11:53 AM 60.1 °F - 28.9 °F 31% 30.02 in 10.0 mi Variable 3.5 mph - N/A   Clear
12:53 PM 61.0 °F - 28.9 °F 30% 29.99 in 10.0 mi WNW 4.6 mph - N/A   Clear
1:53 PM 62.1 °F - 28.9 °F 29% 29.97 in 10.0 mi NNW 9.2 mph - N/A   Partly Cloudy
2:53 PM 62.1 °F - 28.9 °F 29% 29.96 in 10.0 mi West 6.9 mph - N/A   Partly Cloudy
3:53 PM 60.1 °F - 30.9 °F 33% 29.96 in 10.0 mi WNW 8.1 mph - N/A   Mostly Cloudy
4:53 PM 60.1 °F - 30.0 °F 32% 29.95 in 10.0 mi SW 8.1 mph - N/A   Clear
5:53 PM 55.9 °F - 33.1 °F 42% 29.96 in 10.0 mi WSW 12.7 mph - N/A   Clear
6:53 PM 53.1 °F - 34.0 °F 48% 29.97 in 10.0 mi WSW 9.2 mph - N/A   Clear
7:53 PM 51.1 °F - 34.0 °F 52% 29.98 in 10.0 mi WSW 9.2 mph - N/A   Clear
8:53 PM 48.9 °F - 34.0 °F 56% 29.99 in 10.0 mi West 10.4 mph - N/A   Clear
9:53 PM 48.9 °F - 35.1 °F 59% 29.99 in 10.0 mi West 9.2 mph - N/A   Clear
10:53 PM 46.0 °F 42.5 °F 35.1 °F 66% 30.00 in 10.0 mi WSW 6.9 mph - N/A   Clear
11:53 PM 44.1 °F 40.8 °F 35.1 °F 71% 30.01 in 10.0 mi West 5.8 mph - N/A   Clear